Time,TemperatureF,DewpointF,PressureIn,WindDirection,WindDirectionDegrees,WindSpeedMPH,WindSpeedGustMPH,Humidity,HourlyPrecipIn,Conditions,Clouds,dailyrainin,SoftwareType,DateUTC
2013-12-16 00:01:00,32.7,30.4,30.21,WSW,255,0.0,0.0,91,0.00,,---,0.00,VWS V14.01,2013-12-16 05:01:00,
2013-12-16 00:02:00,32.7,30.4,30.20,WSW,255,0.0,1.0,91,0.00,,---,0.00,VWS V14.01,2013-12-16 05:02:00,
2013-12-16 00:06:00,32.7,30.4,30.20,WSW,255,0.0,1.0,91,0.00,,---,0.00,VWS V14.01,2013-12-16 05:06:00,
2013-12-16 00:11:00,32.7,30.4,30.20,WSW,255,1.0,1.0,91,0.00,,---,0.00,VWS V14.01,2013-12-16 05:11:00,
2013-12-16 00:16:00,32.7,30.1,30.21,WSW,254,1.0,3.0,90,0.00,,---,0.00,VWS V14.01,2013-12-16 05:16:00,
2013-12-16 00:21:00,33.0,30.1,30.21,SW,235,0.0,2.0,89,0.00,,---,0.00,VWS V14.01,2013-12-16 05:21:00,
2013-12-16 00:26:00,33.1,29.9,30.21,SW,232,2.0,2.0,88,0.00,,---,0.00,VWS V14.01,2013-12-16 05:26:00,
2013-12-16 00:31:00,33.4,30.2,30.21,SSW,201,2.0,3.0,88,0.00,,---,0.00,VWS V14.01,2013-12-16 05:31:00,
2013-12-16 00:36:00,33.6,30.4,30.21,SSW,201,0.0,3.0,88,0.00,,---,0.00,VWS V14.01,2013-12-16 05:36:00,
2013-12-16 00:41:00,33.6,30.1,30.21,SSW,201,1.0,2.0,87,0.00,,---,0.00,VWS V14.01,2013-12-16 05:41:00,
2013-12-16 00:46:00,33.5,30.0,30.21,SSW,213,2.0,3.0,87,0.00,,---,0.00,VWS V14.01,2013-12-16 05:46:00,
2013-12-16 00:51:00,33.6,30.4,30.20,SSW,209,1.0,3.0,88,0.00,,---,0.00,VWS V14.01,2013-12-16 05:51:00,
2013-12-16 00:56:00,33.6,30.1,30.20,SSW,209,1.0,3.0,87,0.00,,---,0.00,VWS V14.01,2013-12-16 05:56:00,
2013-12-16 01:01:00,33.5,30.3,30.20,SSW,207,0.0,2.0,88,0.00,,---,0.00,VWS V14.01,2013-12-16 06:01:00,
2013-12-16 01:06:00,33.5,30.3,30.20,SSW,207,0.0,2.0,88,0.00,,---,0.00,VWS V14.01,2013-12-16 06:06:00,
2013-12-16 01:11:00,33.4,30.2,30.20,SSW,207,1.0,1.0,88,0.00,,---,0.00,VWS V14.01,2013-12-16 06:11:00,
2013-12-16 01:16:00,33.2,30.0,30.20,SSW,207,1.0,2.0,88,0.00,,---,0.00,VWS V14.01,2013-12-16 06:16:00,
2013-12-16 01:21:00,33.1,29.9,30.20,SSW,207,1.0,2.0,88,0.00,,---,0.00,VWS V14.01,2013-12-16 06:21:00,
2013-12-16 01:26:00,33.1,29.9,30.20,SSW,207,0.0,2.0,88,0.00,,---,0.00,VWS V14.01,2013-12-16 06:26:00,
2013-12-16 01:31:00,33.0,30.1,30.20,SSW,207,0.0,1.0,89,0.00,,---,0.00,VWS V14.01,2013-12-16 06:31:00,
2013-12-16 01:36:00,32.9,30.0,30.20,SSW,207,0.0,1.0,89,0.00,,---,0.00,VWS V14.01,2013-12-16 06:36:00,
2013-12-16 01:41:00,32.7,29.8,30.21,SSW,207,0.0,2.0,89,0.00,,---,0.00,VWS V14.01,2013-12-16 06:41:00,
2013-12-16 01:46:00,32.6,30.0,30.21,SSW,204,0.0,2.0,90,0.00,,---,0.00,VWS V14.01,2013-12-16 06:46:00,
2013-12-16 01:51:00,32.7,30.1,30.21,SW,214,1.0,2.0,90,0.00,,---,0.00,VWS V14.01,2013-12-16 06:51:00,
2013-12-16 01:56:00,32.7,30.1,30.20,SW,219,1.0,4.0,90,0.00,,---,0.00,VWS V14.01,2013-12-16 06:56:00,
2013-12-16 02:01:00,32.7,29.8,30.20,SW,219,1.0,2.0,89,0.00,,---,0.00,VWS V14.01,2013-12-16 07:01:00,
2013-12-16 02:06:00,32.7,29.8,30.20,SSW,212,2.0,4.0,89,0.00,,---,0.00,VWS V14.01,2013-12-16 07:06:00,
2013-12-16 02:11:00,32.7,29.8,30.20,SSW,203,0.0,2.0,89,0.00,,---,0.00,VWS V14.01,2013-12-16 07:11:00,
2013-12-16 02:16:00,32.6,29.7,30.20,SSW,203,0.0,2.0,89,0.00,,---,0.00,VWS V14.01,2013-12-16 07:16:00,
2013-12-16 02:21:00,32.6,29.7,30.21,SSW,203,0.0,1.0,89,0.00,,---,0.00,VWS V14.01,2013-12-16 07:21:00,
2013-12-16 02:26:00,32.4,29.5,30.21,SSW,203,2.0,3.0,89,0.00,,---,0.00,VWS V14.01,2013-12-16 07:26:00,
2013-12-16 02:31:00,32.3,30.0,30.21,SSW,203,1.0,3.0,91,0.00,,---,0.00,VWS V14.01,2013-12-16 07:31:00,
2013-12-16 02:36:00,32.2,29.9,30.21,SSW,203,0.0,3.0,91,0.00,,---,0.00,VWS V14.01,2013-12-16 07:36:00,
2013-12-16 02:41:00,32.1,29.8,30.20,SSW,203,1.0,1.0,91,0.00,,---,0.00,VWS V14.01,2013-12-16 07:41:00,
2013-12-16 02:46:00,31.9,29.3,30.21,SSW,203,0.0,2.0,90,0.00,,---,0.00,VWS V14.01,2013-12-16 07:46:00,
2013-12-16 02:51:00,31.6,29.0,30.21,SSW,203,1.0,2.0,90,0.00,,---,0.00,VWS V14.01,2013-12-16 07:51:00,
2013-12-16 02:56:00,31.4,28.8,30.21,SSW,203,0.0,2.0,90,0.00,,---,0.00,VWS V14.01,2013-12-16 07:56:00,
2013-12-16 03:01:00,31.3,29.0,30.22,SSW,203,0.0,0.0,91,0.00,,---,0.00,VWS V14.01,2013-12-16 08:01:00,
2013-12-16 03:06:00,31.1,28.8,30.22,SSW,203,0.0,0.0,91,0.00,,---,0.00,VWS V14.01,2013-12-16 08:06:00,
2013-12-16 03:11:00,30.9,28.6,30.22,SSW,203,0.0,0.0,91,0.00,,---,0.00,VWS V14.01,2013-12-16 08:11:00,
2013-12-16 03:16:00,30.6,28.3,30.22,SSW,203,0.0,1.0,91,0.00,,---,0.00,VWS V14.01,2013-12-16 08:16:00,
2013-12-16 03:21:00,30.4,28.1,30.22,SSW,203,0.0,0.0,91,0.00,,---,0.00,VWS V14.01,2013-12-16 08:21:00,
2013-12-16 03:26:00,30.3,28.0,30.22,SSW,203,0.0,0.0,91,0.00,,---,0.00,VWS V14.01,2013-12-16 08:26:00,
2013-12-16 03:31:00,30.1,27.8,30.22,SSW,203,0.0,0.0,91,0.00,,---,0.00,VWS V14.01,2013-12-16 08:31:00,
2013-12-16 03:36:00,29.9,27.9,30.22,SSW,203,1.0,1.0,92,0.00,,---,0.00,VWS V14.01,2013-12-16 08:36:00,
2013-12-16 03:41:00,29.8,27.8,30.22,SSW,203,0.0,0.0,92,0.00,,---,0.00,VWS V14.01,2013-12-16 08:41:00,
2013-12-16 03:46:00,29.8,27.8,30.22,SSW,203,0.0,0.0,92,0.00,,---,0.00,VWS V14.01,2013-12-16 08:46:00,
2013-12-16 03:51:00,29.8,28.0,30.22,SSW,203,0.0,0.0,93,0.00,,---,0.00,VWS V14.01,2013-12-16 08:51:00,
2013-12-16 03:56:00,29.8,28.0,30.22,SSW,203,0.0,0.0,93,0.00,,---,0.00,VWS V14.01,2013-12-16 08:56:00,
2013-12-16 04:01:00,29.9,28.1,30.23,SSW,203,0.0,0.0,93,0.00,,---,0.00,VWS V14.01,2013-12-16 09:01:00,
2013-12-16 04:06:00,30.0,28.2,30.22,SSW,203,0.0,0.0,93,0.00,,---,0.00,VWS V14.01,2013-12-16 09:06:00,
2013-12-16 04:11:00,30.1,28.3,30.23,SSW,203,0.0,0.0,93,0.00,,---,0.00,VWS V14.01,2013-12-16 09:11:00,
2013-12-16 04:16:00,30.2,28.7,30.23,SSW,203,0.0,0.0,94,0.00,,---,0.00,VWS V14.01,2013-12-16 09:16:00,
2013-12-16 04:21:00,30.3,28.8,30.22,SSW,203,1.0,1.0,94,0.00,,---,0.00,VWS V14.01,2013-12-16 09:21:00,
2013-12-16 04:26:00,30.6,29.1,30.22,SSW,203,0.0,1.0,94,0.00,,---,0.00,VWS V14.01,2013-12-16 09:26:00,
2013-12-16 04:31:00,30.7,29.2,30.22,SSW,203,0.0,0.0,94,0.00,,---,0.00,VWS V14.01,2013-12-16 09:31:00,
2013-12-16 04:36:00,30.9,29.4,30.23,SSW,203,0.0,0.0,94,0.00,,---,0.00,VWS V14.01,2013-12-16 09:36:00,
2013-12-16 04:41:00,30.9,29.4,30.23,SSW,203,0.0,0.0,94,0.00,,---,0.00,VWS V14.01,2013-12-16 09:41:00,
2013-12-16 04:46:00,31.0,29.5,30.23,SSW,203,0.0,0.0,94,0.00,,---,0.00,VWS V14.01,2013-12-16 09:46:00,
2013-12-16 04:51:00,31.0,29.5,30.23,SSW,203,0.0,0.0,94,0.00,,---,0.00,VWS V14.01,2013-12-16 09:51:00,
2013-12-16 04:56:00,31.1,29.6,30.23,SSW,203,0.0,0.0,94,0.00,,---,0.00,VWS V14.01,2013-12-16 09:56:00,
2013-12-16 05:01:00,31.1,29.3,30.23,SSW,203,0.0,1.0,93,0.00,,---,0.00,VWS V14.01,2013-12-16 10:01:00,
2013-12-16 05:06:00,31.1,29.3,30.23,SSW,203,1.0,1.0,93,0.00,,---,0.00,VWS V14.01,2013-12-16 10:06:00,
2013-12-16 05:11:00,31.2,29.4,30.23,SSW,203,0.0,1.0,93,0.00,,---,0.00,VWS V14.01,2013-12-16 10:11:00,
2013-12-16 05:16:00,31.3,29.5,30.23,South,191,3.0,3.0,93,0.00,,---,0.00,VWS V14.01,2013-12-16 10:16:00,
2013-12-16 05:21:00,31.3,29.2,30.23,SSE,156,0.0,2.0,92,0.00,,---,0.00,VWS V14.01,2013-12-16 10:21:00,
2013-12-16 05:26:00,31.4,29.4,30.23,SSE,156,1.0,2.0,92,0.00,,---,0.00,VWS V14.01,2013-12-16 10:26:00,
2013-12-16 05:31:00,31.3,29.2,30.23,SSE,164,1.0,2.0,92,0.00,,---,0.00,VWS V14.01,2013-12-16 10:31:00,
2013-12-16 05:36:00,31.3,29.2,30.23,SSE,164,0.0,2.0,92,0.00,,---,0.00,VWS V14.01,2013-12-16 10:36:00,
2013-12-16 05:41:00,31.3,29.2,30.22,SSE,164,0.0,0.0,92,0.00,,---,0.00,VWS V14.01,2013-12-16 10:41:00,
2013-12-16 05:46:00,31.4,29.4,30.23,SSE,164,1.0,1.0,92,0.00,,---,0.00,VWS V14.01,2013-12-16 10:46:00,
2013-12-16 05:51:00,31.3,29.2,30.23,SSE,164,1.0,1.0,92,0.00,,---,0.00,VWS V14.01,2013-12-16 10:51:00,
2013-12-16 05:56:00,31.3,29.2,30.23,SSE,164,1.0,2.0,92,0.00,,---,0.00,VWS V14.01,2013-12-16 10:56:00,
2013-12-16 06:01:00,31.3,29.2,30.23,SSE,164,0.0,0.0,92,0.00,,---,0.00,VWS V14.01,2013-12-16 11:01:00,
2013-12-16 06:06:00,31.3,29.2,30.23,SSE,164,1.0,1.0,92,0.00,,---,0.00,VWS V14.01,2013-12-16 11:06:00,
2013-12-16 06:11:00,31.4,29.4,30.23,SSE,164,0.0,0.0,92,0.00,,---,0.00,VWS V14.01,2013-12-16 11:11:00,
2013-12-16 06:16:00,31.4,29.4,30.23,SSE,164,0.0,1.0,92,0.00,,---,0.00,VWS V14.01,2013-12-16 11:16:00,
2013-12-16 06:21:00,31.5,29.5,30.23,SSE,164,0.0,1.0,92,0.00,,---,0.00,VWS V14.01,2013-12-16 11:21:00,
2013-12-16 06:26:00,31.5,29.5,30.24,SSE,164,0.0,1.0,92,0.00,,---,0.00,VWS V14.01,2013-12-16 11:26:00,
2013-12-16 06:31:00,31.5,29.5,30.24,SSE,164,0.0,0.0,92,0.00,,---,0.00,VWS V14.01,2013-12-16 11:31:00,
2013-12-16 06:36:00,31.6,29.5,30.24,SSE,164,0.0,1.0,92,0.00,,---,0.00,VWS V14.01,2013-12-16 11:36:00,
2013-12-16 06:41:00,31.6,29.5,30.24,SSE,164,0.0,0.0,92,0.00,,---,0.00,VWS V14.01,2013-12-16 11:41:00,
2013-12-16 06:46:00,31.6,29.5,30.24,SSE,164,0.0,2.0,92,0.00,,---,0.00,VWS V14.01,2013-12-16 11:46:00,
2013-12-16 06:51:00,31.5,29.2,30.24,SSE,164,0.0,0.0,91,0.00,,---,0.00,VWS V14.01,2013-12-16 11:51:00,
2013-12-16 06:56:00,31.5,29.2,30.23,SSE,164,0.0,1.0,91,0.00,,---,0.00,VWS V14.01,2013-12-16 11:56:00,
2013-12-16 07:01:00,31.5,29.2,30.23,SSE,164,0.0,1.0,91,0.00,,---,0.00,VWS V14.01,2013-12-16 12:01:00,
2013-12-16 07:06:00,31.5,29.5,30.24,SSE,164,0.0,1.0,92,0.00,,---,0.00,VWS V14.01,2013-12-16 12:06:00,
2013-12-16 07:11:00,31.5,29.2,30.24,SSE,164,0.0,0.0,91,0.00,,---,0.00,VWS V14.01,2013-12-16 12:11:00,
2013-12-16 07:16:00,31.6,29.5,30.24,SSE,164,1.0,2.0,92,0.00,,---,0.00,VWS V14.01,2013-12-16 12:16:00,
2013-12-16 07:21:00,31.6,29.5,30.24,SSE,164,0.0,0.0,92,0.00,,---,0.00,VWS V14.01,2013-12-16 12:21:00,
2013-12-16 07:26:00,31.7,29.6,30.24,SSE,164,0.0,1.0,92,0.00,,---,0.00,VWS V14.01,2013-12-16 12:26:00,
2013-12-16 07:31:00,31.7,29.6,30.24,SSE,164,2.0,2.0,92,0.00,,---,0.00,VWS V14.01,2013-12-16 12:31:00,
2013-12-16 07:36:00,31.8,29.8,30.24,SSE,164,0.0,2.0,92,0.00,,---,0.00,VWS V14.01,2013-12-16 12:36:00,
2013-12-16 07:41:00,31.8,29.8,30.24,SSE,165,1.0,2.0,92,0.00,,---,0.00,VWS V14.01,2013-12-16 12:41:00,
2013-12-16 07:46:00,31.8,29.8,30.24,South,184,0.0,3.0,92,0.00,,---,0.00,VWS V14.01,2013-12-16 12:46:00,
2013-12-16 07:51:00,31.8,29.8,30.24,SSW,204,1.0,1.0,92,0.00,,---,0.00,VWS V14.01,2013-12-16 12:51:00,
2013-12-16 07:56:00,31.8,29.5,30.24,SSW,204,3.0,3.0,91,0.00,,---,0.00,VWS V14.01,2013-12-16 12:56:00,
2013-12-16 08:01:00,32.0,29.9,30.25,SSW,201,1.0,1.0,92,0.00,,---,0.00,VWS V14.01,2013-12-16 13:01:00,
2013-12-16 08:06:00,32.1,30.0,30.25,SSW,201,2.0,3.0,92,0.00,,---,0.00,VWS V14.01,2013-12-16 13:06:00,
2013-12-16 08:11:00,32.2,30.1,30.25,SSW,201,1.0,2.0,92,0.00,,---,0.00,VWS V14.01,2013-12-16 13:11:00,
2013-12-16 08:16:00,32.3,30.0,30.24,SSW,201,0.0,2.0,91,0.00,,---,0.00,VWS V14.01,2013-12-16 13:16:00,
2013-12-16 08:21:00,32.4,30.3,30.25,SSW,201,1.0,1.0,92,0.00,,---,0.00,VWS V14.01,2013-12-16 13:21:00,
2013-12-16 08:26:00,32.4,30.1,30.25,SSW,201,0.0,3.0,91,0.00,,---,0.00,VWS V14.01,2013-12-16 13:26:00,
2013-12-16 08:31:00,32.4,29.8,30.25,SSW,201,1.0,2.0,90,0.00,,---,0.00,VWS V14.01,2013-12-16 13:31:00,
2013-12-16 08:36:00,32.4,30.1,30.25,South,184,2.0,3.0,91,0.00,,---,0.00,VWS V14.01,2013-12-16 13:36:00,
2013-12-16 08:41:00,32.5,30.2,30.25,South,188,1.0,1.0,91,0.00,,---,0.00,VWS V14.01,2013-12-16 13:41:00,
2013-12-16 08:46:00,32.6,30.3,30.25,South,174,0.0,3.0,91,0.00,,---,0.00,VWS V14.01,2013-12-16 13:46:00,
2013-12-16 08:51:00,32.8,30.5,30.25,South,186,0.0,2.0,91,0.00,,---,0.00,VWS V14.01,2013-12-16 13:51:00,
2013-12-16 08:56:00,33.2,30.6,30.25,South,184,1.0,2.0,90,0.00,,---,0.00,VWS V14.01,2013-12-16 13:56:00,
2013-12-16 09:01:00,33.6,31.0,30.25,South,186,2.0,2.0,90,0.00,,---,0.00,VWS V14.01,2013-12-16 14:01:00,
2013-12-16 09:06:00,34.1,30.9,30.25,SSW,196,0.0,4.0,88,0.00,,---,0.00,VWS V14.01,2013-12-16 14:06:00,
2013-12-16 09:11:00,34.5,31.6,30.25,SSW,209,3.0,3.0,89,0.00,,---,0.00,VWS V14.01,2013-12-16 14:11:00,
2013-12-16 09:16:00,34.7,31.2,30.25,South,190,5.0,7.0,87,0.00,,---,0.00,VWS V14.01,2013-12-16 14:16:00,
2013-12-16 09:21:00,34.5,31.0,30.25,SSE,164,2.0,3.0,87,0.00,,---,0.00,VWS V14.01,2013-12-16 14:21:00,
2013-12-16 09:26:00,34.7,31.0,30.25,South,189,2.0,6.0,86,0.00,,---,0.00,VWS V14.01,2013-12-16 14:26:00,
2013-12-16 09:31:00,34.7,31.0,30.25,SSW,197,3.0,4.0,86,0.00,,---,0.00,VWS V14.01,2013-12-16 14:31:00,
2013-12-16 09:36:00,34.7,31.0,30.25,SW,234,4.0,6.0,86,0.00,,---,0.00,VWS V14.01,2013-12-16 14:36:00,
2013-12-16 09:41:00,34.4,30.6,30.25,SSW,211,4.0,5.0,86,0.00,,---,0.00,VWS V14.01,2013-12-16 14:41:00,
2013-12-16 09:46:00,34.2,30.7,30.26,SW,221,1.0,5.0,87,0.00,,---,0.00,VWS V14.01,2013-12-16 14:46:00,
2013-12-16 09:51:00,34.4,30.9,30.26,SW,223,2.0,5.0,87,0.00,,---,0.00,VWS V14.01,2013-12-16 14:51:00,
2013-12-16 09:56:00,34.7,31.5,30.26,SW,223,2.0,5.0,88,0.00,,---,0.00,VWS V14.01,2013-12-16 14:56:00,
2013-12-16 10:01:00,35.2,31.4,30.26,South,188,3.0,4.0,86,0.00,,---,0.00,VWS V14.01,2013-12-16 15:01:00,
2013-12-16 10:06:00,35.7,31.6,30.26,WSW,238,4.0,7.0,85,0.00,,---,0.00,VWS V14.01,2013-12-16 15:06:00,
2013-12-16 10:11:00,36.1,31.5,30.26,SSW,198,3.0,6.0,83,0.00,,---,0.00,VWS V14.01,2013-12-16 15:11:00,
2013-12-16 10:16:00,36.4,32.0,30.26,SW,223,5.0,8.0,84,0.00,,---,0.00,VWS V14.01,2013-12-16 15:16:00,
2013-12-16 10:21:00,36.4,31.4,30.26,SSW,201,4.0,6.0,82,0.00,,---,0.00,VWS V14.01,2013-12-16 15:21:00,
2013-12-16 10:26:00,36.8,31.8,30.26,SSW,209,5.0,7.0,82,0.00,,---,0.00,VWS V14.01,2013-12-16 15:26:00,
2013-12-16 10:31:00,36.9,31.9,30.26,SSW,202,9.0,9.0,82,0.00,,---,0.00,VWS V14.01,2013-12-16 15:31:00,
2013-12-16 10:36:00,37.0,32.0,30.26,SW,222,6.0,9.0,82,0.00,,---,0.00,VWS V14.01,2013-12-16 15:36:00,
2013-12-16 10:41:00,37.0,32.0,30.25,SSW,207,6.0,6.0,82,0.00,,---,0.00,VWS V14.01,2013-12-16 15:41:00,
2013-12-16 10:46:00,37.2,31.9,30.25,SW,218,3.0,9.0,81,0.00,,---,0.00,VWS V14.01,2013-12-16 15:46:00,
2013-12-16 10:51:00,37.6,32.3,30.25,WSW,240,5.0,8.0,81,0.00,,---,0.00,VWS V14.01,2013-12-16 15:51:00,
2013-12-16 10:56:00,37.9,32.3,30.25,SW,225,4.0,8.0,80,0.00,,---,0.00,VWS V14.01,2013-12-16 15:56:00,
2013-12-16 11:01:00,38.2,32.3,30.25,SSW,209,1.0,2.0,79,0.00,,---,0.00,VWS V14.01,2013-12-16 16:01:00,
2013-12-16 11:06:00,38.7,32.8,30.25,SW,219,4.0,8.0,79,0.00,,---,0.00,VWS V14.01,2013-12-16 16:06:00,
2013-12-16 11:11:00,38.7,33.1,30.24,SW,232,2.0,7.0,80,0.00,,---,0.00,VWS V14.01,2013-12-16 16:11:00,
2013-12-16 11:16:00,39.0,33.0,30.24,SSE,167,2.0,7.0,79,0.00,,---,0.00,VWS V14.01,2013-12-16 16:16:00,
2013-12-16 11:21:00,39.1,32.8,30.24,South,188,2.0,3.0,78,0.00,,---,0.00,VWS V14.01,2013-12-16 16:21:00,
2013-12-16 11:25:00,39.2,32.9,30.24,SSW,192,4.0,7.0,78,0.00,,---,0.00,VWS V14.01,2013-12-16 16:25:00,
2013-12-16 11:30:00,39.6,33.3,30.24,SSW,208,4.0,4.0,78,0.00,,---,0.00,VWS V14.01,2013-12-16 16:30:00,
2013-12-16 11:35:00,40.0,33.1,30.24,SSW,202,5.0,7.0,76,0.00,,---,0.00,VWS V14.01,2013-12-16 16:35:00,
2013-12-16 11:40:00,40.2,33.6,30.23,SW,225,3.0,4.0,77,0.00,,---,0.00,VWS V14.01,2013-12-16 16:40:00,
2013-12-16 11:45:00,41.0,33.7,30.23,SW,224,4.0,8.0,75,0.00,,---,0.00,VWS V14.01,2013-12-16 16:45:00,
2013-12-16 11:50:00,41.1,33.8,30.23,SW,236,3.0,3.0,75,0.00,,---,0.00,VWS V14.01,2013-12-16 16:50:00,
2013-12-16 11:55:00,41.8,34.1,30.23,WSW,247,3.0,5.0,74,0.00,,---,0.00,VWS V14.01,2013-12-16 16:55:00,
2013-12-16 12:01:00,42.5,34.5,30.22,WSW,240,2.0,6.0,73,0.00,,---,0.00,VWS V14.01,2013-12-16 17:01:00,
2013-12-16 12:06:00,43.0,34.6,30.22,SW,229,2.0,6.0,72,0.00,,---,0.00,VWS V14.01,2013-12-16 17:06:00,
2013-12-16 12:11:00,42.8,34.4,30.21,SW,218,8.0,8.0,72,0.00,,---,0.00,VWS V14.01,2013-12-16 17:11:00,
2013-12-16 12:16:00,42.8,34.4,30.21,South,190,4.0,8.0,72,0.00,,---,0.00,VWS V14.01,2013-12-16 17:16:00,
2013-12-16 12:21:00,43.2,34.8,30.20,SSW,209,5.0,8.0,72,0.00,,---,0.00,VWS V14.01,2013-12-16 17:21:00,
2013-12-16 12:26:00,43.5,35.1,30.20,SSW,207,6.0,8.0,72,0.00,,---,0.00,VWS V14.01,2013-12-16 17:26:00,
2013-12-16 12:31:00,43.9,35.1,30.20,SSE,168,3.0,4.0,71,0.00,,---,0.00,VWS V14.01,2013-12-16 17:31:00,
2013-12-16 12:36:00,44.4,36.0,30.20,South,180,3.0,5.0,72,0.00,,---,0.00,VWS V14.01,2013-12-16 17:36:00,
2013-12-16 12:41:00,44.6,35.1,30.19,SW,216,4.0,7.0,69,0.00,,---,0.00,VWS V14.01,2013-12-16 17:41:00,
2013-12-16 12:46:00,44.5,35.0,30.19,SW,229,7.0,8.0,69,0.00,,---,0.00,VWS V14.01,2013-12-16 17:46:00,
2013-12-16 12:51:00,44.8,35.6,30.19,SW,227,5.0,7.0,70,0.00,,---,0.00,VWS V14.01,2013-12-16 17:51:00,
2013-12-16 12:56:00,45.4,35.8,30.19,SW,220,7.0,10.0,69,0.00,,---,0.00,VWS V14.01,2013-12-16 17:56:00,
2013-12-16 13:01:00,45.5,35.9,30.18,SSW,192,7.0,7.0,69,0.00,,---,0.00,VWS V14.01,2013-12-16 18:01:00,
2013-12-16 13:06:00,45.9,36.0,30.18,SW,215,4.0,10.0,68,0.00,,---,0.00,VWS V14.01,2013-12-16 18:06:00,
2013-12-16 13:11:00,46.3,36.0,30.17,SSW,192,2.0,6.0,67,0.00,,---,0.00,VWS V14.01,2013-12-16 18:11:00,
2013-12-16 13:16:00,46.7,36.3,30.17,WSW,244,6.0,10.0,67,0.00,,---,0.00,VWS V14.01,2013-12-16 18:16:00,
2013-12-16 13:21:00,47.4,36.6,30.17,SW,215,4.0,6.0,66,0.00,,---,0.00,VWS V14.01,2013-12-16 18:21:00,
2013-12-16 13:26:00,47.7,36.9,30.17,SSW,200,6.0,8.0,66,0.00,,---,0.00,VWS V14.01,2013-12-16 18:26:00,
2013-12-16 13:31:00,47.8,37.0,30.17,SW,224,7.0,8.0,66,0.00,,---,0.00,VWS V14.01,2013-12-16 18:31:00,
2013-12-16 13:36:00,48.0,36.0,30.16,WSW,243,4.0,10.0,63,0.00,,---,0.00,VWS V14.01,2013-12-16 18:36:00,
2013-12-16 13:41:00,48.6,36.6,30.16,SSW,192,5.0,7.0,63,0.00,,---,0.00,VWS V14.01,2013-12-16 18:41:00,
2013-12-16 13:46:00,48.3,36.3,30.16,SSW,212,4.0,12.0,63,0.00,,---,0.00,VWS V14.01,2013-12-16 18:46:00,
2013-12-16 13:51:00,48.7,36.7,30.15,SSW,213,4.0,6.0,63,0.00,,---,0.00,VWS V14.01,2013-12-16 18:51:00,
2013-12-16 13:56:00,48.8,36.4,30.15,SW,234,5.0,10.0,62,0.00,,---,0.00,VWS V14.01,2013-12-16 18:56:00,
2013-12-16 14:01:00,49.5,37.4,30.15,WSW,240,6.0,8.0,63,0.00,,---,0.00,VWS V14.01,2013-12-16 19:01:00,
2013-12-16 14:06:00,50.0,37.1,30.15,SW,227,5.0,8.0,61,0.00,,---,0.00,VWS V14.01,2013-12-16 19:06:00,
2013-12-16 14:11:00,50.2,37.3,30.15,SW,217,11.0,11.0,61,0.00,,---,0.00,VWS V14.01,2013-12-16 19:11:00,
2013-12-16 14:16:00,49.8,36.9,30.15,South,188,3.0,12.0,61,0.00,,---,0.00,VWS V14.01,2013-12-16 19:16:00,
2013-12-16 14:21:00,50.0,37.9,30.14,SSW,194,6.0,6.0,63,0.00,,---,0.00,VWS V14.01,2013-12-16 19:21:00,
2013-12-16 14:26:00,50.4,37.5,30.14,SSW,206,7.0,8.0,61,0.00,,---,0.00,VWS V14.01,2013-12-16 19:26:00,
2013-12-16 14:31:00,50.7,37.3,30.14,WSW,243,2.0,3.0,60,0.00,,---,0.00,VWS V14.01,2013-12-16 19:31:00,
2013-12-16 14:36:00,51.3,37.5,30.14,WSW,250,4.0,8.0,59,0.00,,---,0.00,VWS V14.01,2013-12-16 19:36:00,
2013-12-16 14:41:00,51.7,37.4,30.14,South,188,1.0,4.0,58,0.00,,---,0.00,VWS V14.01,2013-12-16 19:41:00,
2013-12-16 14:46:00,52.1,38.2,30.14,SW,230,2.0,7.0,59,0.00,,---,0.00,VWS V14.01,2013-12-16 19:46:00,
2013-12-16 14:51:00,52.4,37.6,30.14,SW,223,5.0,5.0,57,0.00,,---,0.00,VWS V14.01,2013-12-16 19:51:00,
2013-12-16 14:56:00,52.3,37.5,30.13,SSW,205,6.0,8.0,57,0.00,,---,0.00,VWS V14.01,2013-12-16 19:56:00,
2013-12-16 15:01:00,52.4,36.7,30.13,SW,223,5.0,5.0,55,0.00,,---,0.00,VWS V14.01,2013-12-16 20:01:00,
2013-12-16 15:06:00,52.6,37.4,30.13,SSW,211,6.0,7.0,56,0.00,,---,0.00,VWS V14.01,2013-12-16 20:06:00,
2013-12-16 15:11:00,52.6,37.4,30.13,SSW,193,4.0,6.0,56,0.00,,---,0.00,VWS V14.01,2013-12-16 20:11:00,
2013-12-16 15:16:00,52.6,38.3,30.13,SSW,211,5.0,7.0,58,0.00,,---,0.00,VWS V14.01,2013-12-16 20:16:00,
2013-12-16 15:21:00,52.8,38.0,30.13,SW,215,5.0,5.0,57,0.00,,---,0.00,VWS V14.01,2013-12-16 20:21:00,
2013-12-16 15:26:00,53.1,37.4,30.13,SSW,194,1.0,7.0,55,0.00,,---,0.00,VWS V14.01,2013-12-16 20:26:00,
2013-12-16 15:31:00,52.9,37.7,30.13,SSW,196,4.0,4.0,56,0.00,,---,0.00,VWS V14.01,2013-12-16 20:31:00,
2013-12-16 15:36:00,52.9,37.7,30.13,SW,226,3.0,7.0,56,0.00,,---,0.00,VWS V14.01,2013-12-16 20:36:00,
2013-12-16 15:41:00,53.1,36.9,30.13,WSW,240,1.0,2.0,54,0.00,,---,0.00,VWS V14.01,2013-12-16 20:41:00,
2013-12-16 15:46:00,53.1,36.9,30.14,West,264,1.0,3.0,54,0.00,,---,0.00,VWS V14.01,2013-12-16 20:46:00,
2013-12-16 15:51:00,53.1,36.4,30.14,WSW,247,2.0,4.0,53,0.00,,---,0.00,VWS V14.01,2013-12-16 20:51:00,
2013-12-16 15:55:00,53.4,36.7,30.14,WSW,258,2.0,7.0,53,0.00,,---,0.00,VWS V14.01,2013-12-16 20:55:00,
2013-12-16 16:00:00,53.5,37.3,30.14,West,259,1.0,2.0,54,0.00,,---,0.00,VWS V14.01,2013-12-16 21:00:00,
2013-12-16 16:05:00,53.3,36.6,30.14,West,259,0.0,3.0,53,0.00,,---,0.00,VWS V14.01,2013-12-16 21:05:00,
2013-12-16 16:10:00,53.3,37.1,30.14,SW,234,2.0,3.0,54,0.00,,---,0.00,VWS V14.01,2013-12-16 21:10:00,
2013-12-16 16:15:00,53.6,37.8,30.14,WSW,238,2.0,3.0,55,0.00,,---,0.00,VWS V14.01,2013-12-16 21:15:00,
2013-12-16 16:20:00,53.7,37.0,30.14,WSW,249,1.0,3.0,53,0.00,,---,0.00,VWS V14.01,2013-12-16 21:20:00,
2013-12-16 16:25:00,53.8,36.6,30.14,WSW,247,3.0,4.0,52,0.00,,---,0.00,VWS V14.01,2013-12-16 21:25:00,
2013-12-16 16:30:00,53.7,36.0,30.14,WSW,240,2.0,2.0,51,0.00,,---,0.00,VWS V14.01,2013-12-16 21:30:00,
2013-12-16 16:35:00,53.7,36.0,30.14,SW,217,4.0,8.0,51,0.00,,---,0.00,VWS V14.01,2013-12-16 21:35:00,
2013-12-16 16:40:00,53.6,35.9,30.14,WSW,247,3.0,3.0,51,0.00,,---,0.00,VWS V14.01,2013-12-16 21:40:00,
2013-12-16 16:45:00,53.4,35.7,30.14,SSW,202,3.0,5.0,51,0.00,,---,0.00,VWS V14.01,2013-12-16 21:45:00,
2013-12-16 16:50:00,53.3,35.7,30.14,WSW,240,2.0,4.0,51,0.00,,---,0.00,VWS V14.01,2013-12-16 21:50:00,
2013-12-16 16:55:00,53.2,36.0,30.14,SW,226,1.0,5.0,52,0.00,,---,0.00,VWS V14.01,2013-12-16 21:55:00,
2013-12-16 17:00:00,53.1,36.9,30.14,SW,231,2.0,3.0,54,0.00,,---,0.00,VWS V14.01,2013-12-16 22:00:00,
2013-12-16 17:05:00,52.8,36.6,30.14,SW,231,1.0,3.0,54,0.00,,---,0.00,VWS V14.01,2013-12-16 22:05:00,
2013-12-16 17:10:00,52.6,36.5,30.14,SW,229,1.0,1.0,54,0.00,,---,0.00,VWS V14.01,2013-12-16 22:10:00,
2013-12-16 17:15:00,52.4,35.8,30.15,SW,229,2.0,4.0,53,0.00,,---,0.00,VWS V14.01,2013-12-16 22:15:00,
2013-12-16 17:20:00,52.2,36.5,30.14,SW,223,1.0,2.0,55,0.00,,---,0.00,VWS V14.01,2013-12-16 22:20:00,
2013-12-16 17:25:00,51.8,36.2,30.15,SSW,211,1.0,4.0,55,0.00,,---,0.00,VWS V14.01,2013-12-16 22:25:00,
2013-12-16 17:30:00,51.6,36.0,30.15,SW,235,3.0,6.0,55,0.00,,---,0.00,VWS V14.01,2013-12-16 22:30:00,
2013-12-16 17:35:00,51.4,35.8,30.15,SW,221,3.0,6.0,55,0.00,,---,0.00,VWS V14.01,2013-12-16 22:35:00,
2013-12-16 17:40:00,51.3,35.7,30.15,SSW,207,2.0,3.0,55,0.00,,---,0.00,VWS V14.01,2013-12-16 22:40:00,
2013-12-16 17:45:00,51.1,36.4,30.15,SW,217,0.0,3.0,57,0.00,,---,0.00,VWS V14.01,2013-12-16 22:45:00,
2013-12-16 17:50:00,50.8,36.1,30.15,SW,217,0.0,1.0,57,0.00,,---,0.00,VWS V14.01,2013-12-16 22:50:00,
2013-12-16 17:55:00,50.6,35.9,30.15,SW,219,2.0,4.0,57,0.00,,---,0.00,VWS V14.01,2013-12-16 22:55:00,
2013-12-16 18:00:00,50.4,36.2,30.15,SSW,213,3.0,3.0,58,0.00,,---,0.00,VWS V14.01,2013-12-16 23:00:00,
2013-12-16 18:05:00,50.3,36.1,30.15,SW,214,2.0,4.0,58,0.00,,---,0.00,VWS V14.01,2013-12-16 23:05:00,
2013-12-16 18:10:00,50.1,36.3,30.15,SSW,206,2.0,2.0,59,0.00,,---,0.00,VWS V14.01,2013-12-16 23:10:00,
2013-12-16 18:15:00,49.9,36.2,30.15,SSW,206,0.0,2.0,59,0.00,,---,0.00,VWS V14.01,2013-12-16 23:15:00,
2013-12-16 18:20:00,49.6,36.7,30.16,SSW,201,2.0,4.0,61,0.00,,---,0.00,VWS V14.01,2013-12-16 23:20:00,
2013-12-16 18:25:00,49.2,35.9,30.15,SSW,212,1.0,4.0,60,0.00,,---,0.00,VWS V14.01,2013-12-16 23:25:00,
2013-12-16 18:30:00,49.0,35.7,30.15,SSW,212,0.0,0.0,60,0.00,,---,0.00,VWS V14.01,2013-12-16 23:30:00,
2013-12-16 18:35:00,48.8,36.4,30.16,SSW,212,0.0,0.0,62,0.00,,---,0.00,VWS V14.01,2013-12-16 23:35:00,
2013-12-16 18:40:00,48.3,36.3,30.16,SSW,212,0.0,0.0,63,0.00,,---,0.00,VWS V14.01,2013-12-16 23:40:00,
2013-12-16 18:45:00,48.0,36.4,30.16,SSW,212,0.0,0.0,64,0.00,,---,0.00,VWS V14.01,2013-12-16 23:45:00,
2013-12-16 18:50:00,47.5,36.3,30.16,SSW,212,0.0,0.0,65,0.00,,---,0.00,VWS V14.01,2013-12-16 23:50:00,
2013-12-16 18:55:00,47.1,36.0,30.16,SSW,212,0.0,0.0,65,0.00,,---,0.00,VWS V14.01,2013-12-16 23:55:00,
2013-12-16 19:00:00,46.7,35.2,30.16,SSW,212,0.0,1.0,64,0.00,,---,0.00,VWS V14.01,2013-12-17 00:00:00,
2013-12-16 19:05:00,46.3,34.8,30.16,SSW,212,0.0,1.0,64,0.00,,---,0.00,VWS V14.01,2013-12-17 00:05:00,
2013-12-16 19:10:00,46.2,34.7,30.17,SSW,212,0.0,0.0,64,0.00,,---,0.00,VWS V14.01,2013-12-17 00:10:00,
2013-12-16 19:15:00,46.0,34.9,30.17,SSW,212,0.0,0.0,65,0.00,,---,0.00,VWS V14.01,2013-12-17 00:15:00,
2013-12-16 19:20:00,45.7,35.0,30.17,SSW,212,0.0,0.0,66,0.00,,---,0.00,VWS V14.01,2013-12-17 00:20:00,
2013-12-16 19:25:00,45.4,35.1,30.17,SSW,212,0.0,2.0,67,0.00,,---,0.00,VWS V14.01,2013-12-17 00:25:00,
2013-12-16 19:30:00,45.2,34.9,30.17,SSW,212,0.0,0.0,67,0.00,,---,0.00,VWS V14.01,2013-12-17 00:30:00,
2013-12-16 19:35:00,45.1,34.8,30.17,SSW,212,1.0,2.0,67,0.00,,---,0.00,VWS V14.01,2013-12-17 00:35:00,
2013-12-16 19:40:00,45.2,36.0,30.17,SSW,212,1.0,3.0,70,0.00,,---,0.00,VWS V14.01,2013-12-17 00:40:00,
2013-12-16 19:45:00,45.3,36.1,30.17,SSW,211,0.0,4.0,70,0.00,,---,0.00,VWS V14.01,2013-12-17 00:45:00,
2013-12-16 19:50:00,45.2,36.4,30.18,SSW,211,0.0,4.0,71,0.00,,---,0.00,VWS V14.01,2013-12-17 00:50:00,
2013-12-16 19:55:00,45.1,36.3,30.18,SSW,211,0.0,2.0,71,0.00,,---,0.00,VWS V14.01,2013-12-17 00:55:00,
2013-12-16 20:00:00,45.0,36.2,30.18,SSW,211,0.0,0.0,71,0.00,,---,0.00,VWS V14.01,2013-12-17 01:00:00,
2013-12-16 20:05:00,44.9,36.1,30.18,SSW,211,0.0,1.0,71,0.00,,---,0.00,VWS V14.01,2013-12-17 01:05:00,
2013-12-16 20:10:00,44.7,36.2,30.18,SSW,211,0.0,1.0,72,0.00,,---,0.00,VWS V14.01,2013-12-17 01:10:00,
2013-12-16 20:15:00,44.5,36.0,30.18,SSW,211,0.0,0.0,72,0.00,,---,0.00,VWS V14.01,2013-12-17 01:15:00,
2013-12-16 20:20:00,44.4,36.3,30.18,SSW,212,0.0,0.0,73,0.00,,---,0.00,VWS V14.01,2013-12-17 01:20:00,
2013-12-16 20:25:00,44.2,36.1,30.18,SSW,212,0.0,1.0,73,0.00,,---,0.00,VWS V14.01,2013-12-17 01:25:00,
2013-12-16 20:30:00,44.2,36.1,30.18,SSW,212,0.0,2.0,73,0.00,,---,0.00,VWS V14.01,2013-12-17 01:30:00,
2013-12-16 20:35:00,44.1,36.4,30.18,SSW,212,0.0,2.0,74,0.00,,---,0.00,VWS V14.01,2013-12-17 01:35:00,
2013-12-16 20:40:00,44.0,35.9,30.18,SSW,212,0.0,2.0,73,0.00,,---,0.00,VWS V14.01,2013-12-17 01:40:00,
2013-12-16 20:45:00,43.9,36.2,30.18,SSW,212,0.0,2.0,74,0.00,,---,0.00,VWS V14.01,2013-12-17 01:45:00,
2013-12-16 20:50:00,43.7,36.0,30.18,SSW,212,0.0,2.0,74,0.00,,---,0.00,VWS V14.01,2013-12-17 01:50:00,
2013-12-16 20:55:00,43.5,35.8,30.18,SSW,212,0.0,0.0,74,0.00,,---,0.00,VWS V14.01,2013-12-17 01:55:00,
2013-12-16 21:00:00,43.3,35.9,30.18,SSW,212,0.0,1.0,75,0.00,,---,0.00,VWS V14.01,2013-12-17 02:00:00,
2013-12-16 21:05:00,43.1,35.7,30.19,SSW,212,0.0,0.0,75,0.00,,---,0.00,VWS V14.01,2013-12-17 02:05:00,
2013-12-16 21:10:00,42.9,35.5,30.19,SSW,212,0.0,0.0,75,0.00,,---,0.00,VWS V14.01,2013-12-17 02:10:00,
2013-12-16 21:15:00,42.7,36.0,30.19,SSW,212,0.0,0.0,77,0.00,,---,0.00,VWS V14.01,2013-12-17 02:15:00,
2013-12-16 21:20:00,42.5,35.5,30.18,SSW,212,0.0,0.0,76,0.00,,---,0.00,VWS V14.01,2013-12-17 02:20:00,
2013-12-16 21:25:00,42.2,35.5,30.18,SSW,212,0.0,0.0,77,0.00,,---,0.00,VWS V14.01,2013-12-17 02:25:00,
2013-12-16 21:30:00,41.9,35.2,30.18,SSW,212,0.0,0.0,77,0.00,,---,0.00,VWS V14.01,2013-12-17 02:30:00,
2013-12-16 21:35:00,41.7,35.0,30.18,SSW,212,0.0,0.0,77,0.00,,---,0.00,VWS V14.01,2013-12-17 02:35:00,
2013-12-16 21:40:00,41.5,35.2,30.18,SSW,212,0.0,0.0,78,0.00,,---,0.00,VWS V14.01,2013-12-17 02:40:00,
2013-12-16 21:45:00,41.4,35.1,30.18,SSW,212,0.0,0.0,78,0.00,,---,0.00,VWS V14.01,2013-12-17 02:45:00,
2013-12-16 21:50:00,41.1,35.4,30.18,SSW,212,0.0,0.0,80,0.00,,---,0.00,VWS V14.01,2013-12-17 02:50:00,
2013-12-16 21:55:00,40.9,35.2,30.18,SSW,212,0.0,0.0,80,0.00,,---,0.00,VWS V14.01,2013-12-17 02:55:00,
2013-12-16 22:00:00,40.6,34.9,30.18,SSW,212,0.0,0.0,80,0.00,,---,0.00,VWS V14.01,2013-12-17 03:00:00,
2013-12-16 22:05:00,40.3,34.9,30.18,SSW,212,0.0,0.0,81,0.00,,---,0.00,VWS V14.01,2013-12-17 03:05:00,
2013-12-16 22:10:00,40.0,35.0,30.18,SSW,212,0.0,0.0,82,0.00,,---,0.00,VWS V14.01,2013-12-17 03:10:00,
2013-12-16 22:14:00,39.7,34.7,30.18,SSW,212,0.0,0.0,82,0.00,,---,0.00,VWS V14.01,2013-12-17 03:14:00,
2013-12-16 22:19:00,39.7,35.0,30.18,SSW,212,0.0,0.0,83,0.00,,---,0.00,VWS V14.01,2013-12-17 03:19:00,
2013-12-16 22:24:00,39.6,34.9,30.18,SSW,212,0.0,0.0,83,0.00,,---,0.00,VWS V14.01,2013-12-17 03:24:00,
2013-12-16 22:29:00,39.5,34.8,30.19,SSW,212,0.0,0.0,83,0.00,,---,0.00,VWS V14.01,2013-12-17 03:29:00,
2013-12-16 22:34:00,39.4,34.7,30.19,SSW,212,0.0,0.0,83,0.00,,---,0.00,VWS V14.01,2013-12-17 03:34:00,
2013-12-16 22:39:00,39.2,34.5,30.19,SSW,212,0.0,0.0,83,0.00,,---,0.00,VWS V14.01,2013-12-17 03:39:00,
2013-12-16 22:44:00,39.0,34.9,30.18,SSW,212,0.0,0.0,85,0.00,,---,0.00,VWS V14.01,2013-12-17 03:44:00,
2013-12-16 22:49:00,38.7,34.6,30.18,SSW,212,0.0,1.0,85,0.00,,---,0.00,VWS V14.01,2013-12-17 03:49:00,
2013-12-16 22:54:00,38.5,34.7,30.18,SSW,212,0.0,0.0,86,0.00,,---,0.00,VWS V14.01,2013-12-17 03:54:00,
2013-12-16 22:59:00,38.4,34.3,30.19,SSW,212,0.0,0.0,85,0.00,,---,0.00,VWS V14.01,2013-12-17 03:59:00,
2013-12-16 23:04:00,38.4,34.6,30.19,SSW,212,0.0,0.0,86,0.00,,---,0.00,VWS V14.01,2013-12-17 04:04:00,
2013-12-16 23:09:00,38.3,34.5,30.19,SSW,212,0.0,0.0,86,0.00,,---,0.00,VWS V14.01,2013-12-17 04:09:00,
2013-12-16 23:14:00,38.1,34.3,30.18,SSW,212,0.0,0.0,86,0.00,,---,0.00,VWS V14.01,2013-12-17 04:14:00,
2013-12-16 23:19:00,38.0,34.5,30.18,SSW,212,0.0,0.0,87,0.00,,---,0.00,VWS V14.01,2013-12-17 04:19:00,
2013-12-16 23:24:00,37.8,34.3,30.19,SSW,212,0.0,0.0,87,0.00,,---,0.00,VWS V14.01,2013-12-17 04:24:00,
2013-12-16 23:29:00,37.7,33.9,30.19,SSW,212,0.0,0.0,86,0.00,,---,0.00,VWS V14.01,2013-12-17 04:29:00,
2013-12-16 23:34:00,37.5,34.0,30.19,SSW,212,0.0,0.0,87,0.00,,---,0.00,VWS V14.01,2013-12-17 04:34:00,
2013-12-16 23:39:00,37.3,34.1,30.19,SSW,212,0.0,0.0,88,0.00,,---,0.00,VWS V14.01,2013-12-17 04:39:00,
2013-12-16 23:44:00,37.1,33.9,30.19,SSW,212,0.0,0.0,88,0.00,,---,0.00,VWS V14.01,2013-12-17 04:44:00,
2013-12-16 23:49:00,37.0,34.1,30.19,SSW,212,0.0,0.0,89,0.00,,---,0.00,VWS V14.01,2013-12-17 04:49:00,
2013-12-16 23:54:00,37.0,34.1,30.19,SSW,212,0.0,0.0,89,0.00,,---,0.00,VWS V14.01,2013-12-17 04:54:00,
2013-12-16 23:59:00,36.9,34.0,30.18,SSW,212,0.0,0.0,89,0.00,,---,0.00,VWS V14.01,2013-12-17 04:59:00,